Regional Weather Roundup
Issued by NWS

Home | Current Version | Previous Version | Graphics & Text | Print | Product List | Glossary On
Versions: 1 2 3 4 5 6 7 8 9 10 11 12 13 14 15 16 17 18 19 20 21 22 23 24 25 26 27 28 29 30 31 32 33 34 35 36 37 38 39 40 41 42 43 44 45 46 47 48 49 50
000
ASUS43 KLMK 250002
RWRKY
KENTUCKY REGIONAL WEATHER ROUNDUP
NATIONAL WEATHER SERVICE LOUISVILLE KY
800 PM EDT FRI OCT 24 2014

NOTE "FAIR" INDICATES FEW OR NO CLOUDS BELOW 12,000 FEET
WITH NO SIGNIFICANT WEATHER AND/OR OBSTRUCTIONS TO VISIBILITY.

KYZ001>023-026-027-061>063-070>075-250100-
WESTERN AND SOUTH CENTRAL KENTUCKY

CITY           SKY/WX    TMP DP  RH WIND       PRES   REMARKS
PADUCAH        CLEAR     57  52  83 CALM      30.05S
HENDERSON      MOCLDY   N/A N/A N/A CALM      30.05R
OWENSBORO      CLEAR     60  51  72 CALM      30.06R
HOPKINSVILLE   CLEAR     61  55  80 CALM      30.07S
BOWLING GREEN  CLEAR     59  46  62 CALM      30.08R
GLASGOW        NOT AVBL
$$

KYZ024-025-028>034-038-045-046-053-250100-
NORTH CENTRAL KENTUCKY

CITY           SKY/WX    TMP DP  RH WIND       PRES   REMARKS
LOUISVILLE/SDF MOCLDY    60  46  59 S6        30.06R
LOUISVILLE/LOU MOCLDY    57  47  69 CALM      30.06S
FORT KNOX      MOCLDY    54  47  76 CALM      30.05R
$$

KYZ035>037-039>044-047>052-055>060-089>105-250100-
NORTHEAST KENTUCKY

CITY           SKY/WX    TMP DP  RH WIND       PRES   REMARKS
LEXINGTON      CLEAR     58  42  55 CALM      30.07R
COVINGTON      MOCLDY    52  41  66 S5        30.04R
FRANKFORT      PTCLDY    51  42  71 W5        30.06R
$$

KYZ054-064>069-076>088-106>120-250100-
SOUTHEAST KENTUCKY

CITY           SKY/WX    TMP DP  RH WIND       PRES   REMARKS
JACKSON        CLEAR     58  41  53 CALM      30.06S
LONDON         CLEAR     54  43  66 CALM      30.06S
SOMERSET       CLEAR     52  45  76 CALM      30.08R
MIDDLESBORO    CLEAR     51  42  71 CALM      30.08R
MONTICELLO     CLEAR     45  41  86 CALM      30.09R
$$




USA.gov is the U.S. government's official web portal to all federal, state and local government web resources and services.